DW7875 Weather Reports


Display with metric or nautical units.
time (UTC)temp
F
wind
direction
speed
MPH
gust
MPH
rain 1hr
in
rain 24hr
in
rain mn
in
humidity
%
barometer
mb
20260505173111 84 220 2.0 10.0 0.00 0.00 0.00 31 1010.9
20260505171608 83 155 2.0 11.0 0.00 0.00 0.00 31 1011.0
20260505170048 83 238 1.0 5.0 0.00 0.00 0.00 35 1011.2
20260505164546 83 143 2.0 9.0 0.00 0.00 0.00 33 1011.5
20260505163045 82 115 1.0 7.0 0.00 0.00 0.00 36 1011.7
20260505161541 81 139 2.0 8.0 0.00 0.00 0.00 38 1011.8
20260505153034 80 239 2.0 5.0 0.00 0.00 0.00 36 1012.1
20260505151534 79 227 2.0 9.0 0.00 0.00 0.00 38 1012.1
20260505130105 68 239 2.0 8.0 0.00 0.00 0.00 48 1012.0
20260505124601 67 255 3.0 8.0 0.00 0.00 0.00 47 1012.0
20260505123100 66 245 1.0 6.0 0.00 0.00 0.00 50 1012.0
20260505121619 64 224 2.0 7.0 0.00 0.00 0.00 51 1012.0
20260505120047 63 214 2.0 7.0 0.00 0.00 0.00 52 1011.8
20260505114544 63 240 2.0 7.0 0.00 0.00 0.00 53 1011.7
20260505113047 62 183 3.0 8.0 0.00 0.00 0.00 52 1011.7
20260505111547 62 240 2.0 6.0 0.00 0.00 0.00 52 1011.7
20260505101541 62 238 2.0 7.0 0.00 0.00 0.00 50 1011.2
20260505100043 62 166 2.0 5.0 0.00 0.00 0.00 50 1011.1
20260505094536 62 233 2.0 7.0 0.00 0.00 0.00 50 1011.0
20260505093033 62 248 2.0 7.0 0.00 0.00 0.00 49 1011.1
20260505091537 62 223 2.0 6.0 0.00 0.00 0.00 49 1011.0
20260505090032 62 222 2.0 6.0 0.00 0.00 0.00 49 1010.9
20260505084533 62 204 2.0 9.0 0.00 0.00 0.00 49 1010.8
20260505083042 63 221 2.0 8.0 0.00 0.00 0.00 49 1010.8
20260505081532 63 244 2.0 9.0 0.00 0.00 0.00 49 1010.9
20260505080042 62 245 2.0 7.0 0.00 0.00 0.00 49 1010.9
20260505074528 63 235 2.0 7.0 0.00 0.00 0.00 49 1010.9
20260505073027 63 248 2.0 7.0 0.00 0.00 0.00 49 1010.8
20260505071536 63 221 2.0 8.0 0.00 0.00 0.00 49 1010.7
20260505070028 63 236 3.0 11.0 0.00 0.00 0.00 49 1010.7
20260505064525 62 115 3.0 7.0 0.00 0.00 0.00 49 1010.8
20260505063036 62 252 2.0 7.0 0.00 0.00 0.00 48 1010.8
20260505061532 62 196 1.0 5.0 0.00 0.00 0.00 48 1010.8
20260505060022 62 209 1.0 4.0 0.00 0.00 0.00 47 1010.8
20260505054531 62 214 1.0 6.0 0.00 0.00 0.00 47 1010.8
20260505053022 62 145 1.0 5.0 0.00 0.00 0.00 47 1010.9
20260505051534 62 203 0.0 3.0 0.00 0.00 0.00 47 1010.8
20260505041522 62 224 0.0 4.0 0.00 0.00 0.00 48 1010.8
20260505040010 61 200 0.0 4.0 0.00 0.00 0.00 50 1010.7
20260505034509 59 198 0.0 2.0 0.00 0.00 0.00 54 1010.6
20260505033009 59 198 0.0 3.0 0.00 0.00 0.00 66 1010.6
20260505031522 60 195 0.0 1.0 0.00 0.00 0.00 69 1010.7
20260505030008 60 195 0.0 2.0 0.00 0.00 0.00 68 1010.7
20260505024507 60 195 1.0 3.0 0.00 0.00 0.00 70 1010.7
20260505023006 60 193 0.0 2.0 0.00 0.00 0.00 69 1010.8
20260505021506 60 189 0.0 1.0 0.00 0.00 0.00 69 1010.7
20260505020005 60 189 0.0 1.0 0.00 0.00 0.00 68 1010.6
20260505014510 61 189 0.0 1.0 0.00 0.00 0.00 67 1010.6
20260505013004 60 189 0.0 3.0 0.00 0.00 0.00 66 1010.5
20260505011504 61 234 0.0 2.0 0.00 0.00 0.00 66 1010.4
20260505010004 61 236 0.0 2.0 0.00 0.00 0.00 66 1010.2
20260505004502 61 237 0.0 0.0 0.00 0.00 0.00 64 1010.1
20260505003001 61 237 0.0 3.0 0.00 0.00 0.00 64 1010.1
20260505001501 62 242 0.0 4.0 0.00 0.00 0.00 64 1010.1
20260505000106 62 211 1.0 4.0 0.00 0.00 0.00 63 1009.9
20260504234559 63 176 1.0 3.0 0.00 0.00 0.00 61 1010.0
20260504233109 63 133 1.0 5.0 0.00 0.00 0.00 61 1009.9
20260504231559 63 144 1.0 4.0 0.00 0.00 0.00 62 1010.0
20260504230115 63 174 0.0 3.0 0.00 0.00 0.00 62 1009.9
20260504224625 64 145 0.0 3.0 0.00 0.00 0.00 63 1010.0
20260504223100 64 145 2.0 4.0 0.00 0.00 0.00 62 1009.9
20260504221555 65 149 2.0 4.0 0.00 0.00 0.00 60 1010.0
20260504220058 66 255 1.0 4.0 0.00 0.00 0.00 58 1010.1
20260504214555 67 130 1.0 3.0 0.00 0.00 0.00 55 1010.1
20260504213051 68 147 1.0 5.0 0.00 0.00 0.00 53 1010.1
20260504211558 67 207 1.0 4.0 0.00 0.00 0.00 53 1010.2
20260504210100 69 207 1.0 4.0 0.00 0.00 0.00 51 1010.3
20260504204551 70 140 1.0 5.0 0.00 0.00 0.00 51 1010.3
20260504203047 70 142 1.0 4.0 0.00 0.00 0.00 50 1010.3
20260504201548 69 141 2.0 5.0 0.00 0.00 0.00 50 1010.5
20260504200053 69 148 2.0 4.0 0.00 0.00 0.00 50 1010.7
20260504194542 69 139 2.0 5.0 0.00 0.00 0.00 50 1010.9
20260504193044 69 131 3.0 7.0 0.00 0.00 0.00 48 1011.1
20260504191542 73 135 2.0 5.0 0.00 0.00 0.00 43 1011.0
20260504190040 75 135 1.0 4.0 0.00 0.00 0.00 43 1011.2
20260504184539 73 145 1.0 4.0 0.00 0.00 0.00 44 1011.3
20260504183036 71 120 0.0 4.0 0.00 0.00 0.00 50 1011.5
20260504181532 70 146 1.0 4.0 0.00 0.00 0.00 48 1012.0
20260504180030 70 139 1.0 5.0 0.00 0.00 0.00 47 1012.2
20260504174527 69 138 1.0 5.0 0.00 0.00 0.00 51 1012.3